Tracking 20941 objects as of 2-Jul-2020
HD Live streaming from Space Station
objects crossing your sky now

IRIDIUM 47 DEB

Track IRIDIUM 47 DEB now!
10-day predictions


NORAD ID: 40252
Int'l Code: 1997-082M
Perigee: 631.7 km
Apogee: 730.0 km
Inclination: 86.4 °
Period: 98.2 minutes
Semi major axis: 7051 km
RCS: Unknown
Launch date: December 20, 1997
Source: United States (US)
Launch site: AIR FORCE WESTERN TEST RANGE (AFWTR)

Note: This is SATELLITE DEBRIS
aabbcc
Your satellite tracking list
Your tracking list is empty




NASA's NSSDC Master Catalog

Two Line Element Set (TLE):
1 40252U 97082M   20184.55170459  .00002760  00000-0  48107-3 0  9998
2 40252  86.3934 117.6005 0069655  90.1639  34.2206 14.66046348311461
Source of the keplerian elements: AFSPC